FW4758 Weather Reports


Display with metric or nautical units.
time (UTC)temp
F
wind
direction
speed
MPH
gust
MPH
rain 1hr
in
rain 24hr
in
rain mn
in
humidity
%
barometer
mb
20201023053135 73 147 5.0 10.0 0.00 0.00 0.00 80 1002.2
20201023051641 74 149 4.0 9.0 0.00 0.00 0.00 79 1001.9
20201023050140 74 168 7.0 14.0 0.00 0.00 0.00 79 1001.8
20201023044900 74 134 6.0 10.0 0.00 0.00 0.00 78 1001.8
20201023043128 74 159 5.0 12.0 0.00 0.00 0.00 78 1001.7
20201023041740 74 140 5.0 10.0 0.00 0.00 0.00 77 1001.6
20201023040150 74 151 6.0 12.0 0.00 0.00 0.00 77 1001.6
20201023034634 75 161 7.0 12.0 0.00 0.00 0.00 76 1001.5
20201023033137 74 142 5.0 11.0 0.00 0.00 0.00 77 1001.4
20201023031627 74 133 7.0 11.0 0.00 0.00 0.00 77 1001.2
20201023030113 74 137 7.0 13.0 0.00 0.00 0.00 76 1000.8
20201023024634 74 144 8.0 13.0 0.00 0.00 0.00 76 1000.7
20201023023113 75 112 9.0 13.0 0.00 0.00 0.00 76 1000.8
20201023021653 75 123 8.0 13.0 0.00 0.00 0.00 75 1000.8
20201023020147 75 140 7.0 12.0 0.00 0.00 0.00 74 1000.9
20201023014632 76 128 7.0 13.0 0.00 0.00 0.00 73 1000.8
20201023013207 76 125 7.0 13.0 0.00 0.00 0.00 72 1000.9
20201023011757 76 135 9.0 13.0 0.00 0.00 0.00 72 1000.6
20201023004614 77 123 8.0 13.0 0.00 0.00 0.00 71 1000.3
20201023003122 77 142 9.0 14.0 0.00 0.00 0.00 71 1000.0
20201023001633 78 115 7.0 12.0 0.00 0.00 0.00 69 1000.2
20201023000152 79 103 7.0 13.0 0.00 0.00 0.00 68 1000.2
20201022234635 80 115 7.0 14.0 0.00 0.00 0.00 66 1000.2
20201022233140 81 129 5.0 14.0 0.00 0.00 0.00 63 1000.2
20201022231604 81 126 8.0 15.0 0.00 0.00 0.00 62 1000.0
20201022230138 82 167 10.0 17.0 0.00 0.00 0.00 61 1000.1
20201022224641 83 126 10.0 17.0 0.00 0.00 0.00 60 1000.0
20201022223152 83 132 9.0 14.0 0.00 0.00 0.00 59 1000.1
20201022221635 83 154 7.0 16.0 0.00 0.00 0.00 58 1000.3
20201022220132 83 200 9.0 18.0 0.00 0.00 0.00 57 1000.3
20201022214623 84 163 10.0 17.0 0.00 0.00 0.00 58 1000.4
20201022213045 83 168 9.0 15.0 0.00 0.00 0.00 58 1000.4
20201022211608 83 171 8.0 12.0 0.00 0.00 0.00 59 1000.4
20201022210104 84 139 7.0 17.0 0.00 0.00 0.00 57 1000.3
20201022204606 82 157 11.0 20.0 0.00 0.00 0.00 59 1000.4
20201022203100 83 123 11.0 17.0 0.00 0.00 0.00 58 1000.4
20201022201625 82 181 7.0 15.0 0.00 0.00 0.00 62 1000.6
20201022200142 82 157 8.0 16.0 0.00 0.00 0.00 60 1000.9
20201022194553 82 144 9.0 18.0 0.00 0.00 0.00 61 1001.1
20201022193036 82 190 9.0 17.0 0.00 0.00 0.00 61 1001.4
20201022191602 81 172 9.0 22.0 0.00 0.00 0.00 63 1001.7
20201022190043 81 177 11.0 17.0 0.00 0.00 0.00 63 1002.0
20201022184539 81 192 9.0 17.0 0.00 0.00 0.00 64 1002.3
20201022183124 80 180 11.0 19.0 0.00 0.00 0.00 64 1002.5
20201022182314 81 175 8.0 17.0 0.00 0.00 0.00 65 1002.7
20201022180022 81 148 11.0 17.0 0.00 0.00 0.00 64 1002.9
20201022174530 80 165 11.0 17.0 0.00 0.00 0.00 65 1003.2
20201022173020 80 176 11.0 22.0 0.00 0.00 0.00 67 1003.3
20201022171516 78 238 11.0 21.0 0.00 0.00 0.00 70 1003.7
20201022170204 78 157 11.0 18.0 0.00 0.00 0.00 70 1004.0
20201022164630 77 111 9.0 20.0 0.00 0.00 0.00 73 1004.1
20201022163143 76 158 11.0 20.0 0.00 0.00 0.00 74 1004.3
20201022161557 74 170 10.0 19.0 0.00 0.00 0.00 79 1004.5
20201022160126 74 172 9.0 15.0 0.00 0.00 0.00 80 1004.7
20201022154614 73 178 10.0 19.0 0.00 0.00 0.00 81 1004.9
20201022153244 74 167 10.0 17.0 0.00 0.00 0.00 82 1004.8
20201022151700 74 165 6.0 13.0 0.00 0.00 0.00 82 1005.0
20201022150123 73 157 11.0 15.0 0.00 0.00 0.00 83 1005.0
20201022144616 72 159 8.0 15.0 0.00 0.00 0.00 85 1005.0
20201022143209 71 168 7.0 12.0 0.00 0.00 0.00 86 1004.9
20201022141707 70 165 6.0 14.0 0.00 0.00 0.00 87 1004.7
20201022140117 69 155 7.0 13.0 0.00 0.00 0.00 87 1004.4
20201022134630 68 167 7.0 11.0 0.00 0.00 0.00 87 1004.6
20201022133200 68 177 7.0 13.0 0.00 0.00 0.00 86 1004.4
20201022131600 68 169 8.0 13.0 0.00 0.00 0.00 86 1004.3
20201022130153 68 184 9.0 16.0 0.00 0.00 0.00 86 1004.1
20201022124557 68 171 8.0 14.0 0.00 0.00 0.00 86 1004.0
20201022123151 68 171 6.0 14.0 0.00 0.00 0.00 86 1003.9
20201022121601 68 182 4.0 12.0 0.00 0.00 0.00 86 1004.0
20201022120057 68 173 8.0 14.0 0.00 0.00 0.00 86 1004.0
20201022114555 68 167 8.0 16.0 0.00 0.00 0.00 86 1004.0
20201022113034 68 188 7.0 12.0 0.00 0.00 0.00 87 1004.0
20201022111533 68 180 5.0 13.0 0.00 0.00 0.00 87 1003.9
20201022110051 68 171 6.0 12.0 0.00 0.00 0.00 87 1003.8
20201022104532 69 163 7.0 13.0 0.00 0.00 0.00 87 1003.7
20201022103053 69 159 8.0 13.0 0.00 0.00 0.00 87 1003.6
20201022101543 69 170 6.0 12.0 0.00 0.00 0.00 87 1003.6
20201022100027 69 164 10.0 15.0 0.00 0.00 0.00 87 1003.6
20201022094518 69 123 8.0 12.0 0.00 0.00 0.00 86 1003.6
20201022093018 69 176 8.0 14.0 0.00 0.00 0.00 86 1003.6
20201022091521 70 151 7.0 15.0 0.00 0.00 0.00 86 1003.7
20201022090023 70 165 6.0 14.0 0.00 0.00 0.00 85 1003.7
20201022084522 70 173 7.0 15.0 0.00 0.00 0.00 85 1003.7
20201022083021 71 169 8.0 13.0 0.00 0.00 0.00 85 1003.7
20201022081525 71 152 8.0 17.0 0.00 0.00 0.00 84 1003.8
20201022080015 71 150 11.0 16.0 0.00 0.00 0.00 84 1003.8
20201022074706 71 155 9.0 16.0 0.00 0.00 0.00 83 1003.7
20201022073211 71 155 8.0 15.0 0.00 0.00 0.00 82 1003.7
20201022071642 71 158 7.0 15.0 0.00 0.00 0.00 82 1003.8
20201022070216 70 167 7.0 11.0 0.00 0.00 0.00 82 1003.8
20201022065029 70 136 5.0 10.0 0.00 0.00 0.00 82 1003.7
20201022063246 70 144 5.0 9.0 0.00 0.00 0.00 82 1003.8
20201022061645 70 136 5.0 10.0 0.00 0.00 0.00 82 1003.8
20201022060214 70 125 5.0 10.0 0.00 0.00 0.00 83 1003.8